TimeCDT,TemperatureF,Dew PointF,Humidity,Sea Level PressureIn,VisibilityMPH,Wind Direction,Wind SpeedMPH,Gust SpeedMPH,PrecipitationIn,Events,Conditions,WindDirDegrees,DateUTC
12:53 AM,54.0,46.9,77,29.95,10.0,SSE,3.5,-,N/A,,Mostly Cloudy,160,2013-05-08 05:53:00
1:53 AM,52.0,46.0,80,29.95,10.0,Calm,Calm,-,N/A,,Clear,0,2013-05-08 06:53:00
2:53 AM,50.0,45.0,83,29.94,10.0,Calm,Calm,-,N/A,,Clear,0,2013-05-08 07:53:00
3:53 AM,48.9,45.0,86,29.94,10.0,South,3.5,-,N/A,,Partly Cloudy,180,2013-05-08 08:53:00
4:53 AM,51.1,46.0,83,29.94,10.0,SSE,5.8,-,N/A,,Scattered Clouds,150,2013-05-08 09:53:00
5:53 AM,52.0,46.0,80,29.95,10.0,Calm,Calm,-,N/A,,Overcast,0,2013-05-08 10:53:00
6:53 AM,53.1,51.1,93,29.96,7.0,SE,5.8,-,N/A,,Clear,130,2013-05-08 11:53:00
7:53 AM,53.1,52.0,96,29.97,6.0,SSE,4.6,-,N/A,,Overcast,150,2013-05-08 12:53:00
8:46 AM,53.6,51.8,94,29.99,7.0,Calm,Calm,-,0.00,,Overcast,0,2013-05-08 13:46:00
8:53 AM,54.0,52.0,93,29.99,5.0,Calm,Calm,-,0.00,Rain,Light Rain,0,2013-05-08 13:53:00
9:11 AM,53.6,53.6,100,29.99,4.0,East,3.5,-,0.02,Rain,Light Rain,100,2013-05-08 14:11:00
9:53 AM,54.0,53.1,97,29.99,4.0,East,3.5,-,0.06,Rain,Light Rain,90,2013-05-08 14:53:00
10:53 AM,55.0,52.0,89,29.99,10.0,ESE,4.6,-,0.03,Rain,Light Rain,120,2013-05-08 15:53:00
11:53 AM,57.0,54.0,89,29.99,10.0,ENE,8.1,-,0.01,,Overcast,60,2013-05-08 16:53:00
12:53 PM,57.0,53.1,87,30.00,9.0,ENE,9.2,-,N/A,,Overcast,70,2013-05-08 17:53:00
1:53 PM,59.0,53.1,81,30.00,10.0,East,10.4,-,0.01,,Overcast,80,2013-05-08 18:53:00
2:32 PM,59.0,51.8,77,29.99,10.0,East,9.2,-,N/A,,Overcast,80,2013-05-08 19:32:00
2:44 PM,59.0,51.8,77,29.99,10.0,East,8.1,-,N/A,,Overcast,90,2013-05-08 19:44:00
2:53 PM,59.0,52.0,78,30.00,10.0,East,6.9,-,N/A,,Overcast,80,2013-05-08 19:53:00
3:00 PM,59.0,53.6,82,29.99,10.0,ENE,9.2,-,N/A,,Overcast,60,2013-05-08 20:00:00
3:22 PM,57.2,53.6,88,29.99,10.0,East,6.9,-,N/A,,Overcast,90,2013-05-08 20:22:00
3:53 PM,57.0,54.0,89,30.00,10.0,East,9.2,-,N/A,,Overcast,80,2013-05-08 20:53:00
4:02 PM,57.2,53.6,88,29.99,10.0,East,11.5,-,N/A,,Overcast,80,2013-05-08 21:02:00
4:25 PM,57.2,53.6,88,29.98,10.0,East,11.5,-,N/A,,Overcast,90,2013-05-08 21:25:00
4:53 PM,57.0,53.1,87,29.99,10.0,East,10.4,-,N/A,,Overcast,90,2013-05-08 21:53:00
5:53 PM,60.1,53.1,78,29.98,10.0,East,11.5,-,N/A,,Mostly Cloudy,80,2013-05-08 22:53:00
6:53 PM,57.9,54.0,87,29.99,10.0,East,9.2,-,N/A,,Overcast,80,2013-05-08 23:53:00
7:03 PM,57.2,53.6,88,29.98,9.0,ENE,10.4,-,N/A,,Overcast,60,2013-05-09 00:03:00
7:53 PM,57.0,54.0,89,30.00,10.0,East,4.6,-,N/A,,Overcast,90,2013-05-09 00:53:00
8:53 PM,55.9,54.0,93,30.02,10.0,ENE,9.2,-,N/A,,Overcast,60,2013-05-09 01:53:00
9:02 PM,55.4,53.6,94,30.01,10.0,NE,6.9,-,N/A,,Overcast,40,2013-05-09 02:02:00
9:53 PM,55.0,53.1,93,30.03,8.0,ENE,8.1,-,N/A,,Overcast,60,2013-05-09 02:53:00
10:05 PM,55.4,53.6,94,30.02,9.0,ENE,8.1,-,N/A,,Overcast,60,2013-05-09 03:05:00
10:14 PM,55.4,53.6,94,30.02,9.0,ENE,9.2,-,N/A,,Overcast,70,2013-05-09 03:14:00
10:53 PM,55.0,53.1,93,30.04,10.0,ENE,8.1,-,N/A,,Overcast,60,2013-05-09 03:53:00
11:53 PM,54.0,53.1,97,30.04,8.0,NNE,8.1,-,N/A,,Overcast,20,2013-05-09 04:53:00